DW9235 Weather Reports


time (UTC)temp
C
wind
direction
speed
KPH
gust
KPH
rain 1hr
cm
rain 24hr
cm
rain mn
cm
humidity
%
barometer
mb
20260507203001 15 111 4.8 19.3 0.00 0.28 0.00 35 1019.1
20260507201557 15 11 9.7 17.7 0.00 0.28 0.00 33 1019.8
20260507200054 15 65 9.7 19.3 0.00 0.28 0.00 31 1020.2
20260507194553 15 29 6.4 19.3 0.00 0.51 0.00 33 1020.5
20260507193057 15 71 6.4 20.9 0.00 0.51 0.00 31 1020.8
20260507191547 14 98 6.4 16.1 0.00 0.51 0.00 30 1021.0
20260507190044 14 23 6.4 19.3 0.00 0.51 0.00 32 1021.5
20260507184544 13 56 8.0 17.7 0.00 0.69 0.00 31 1021.5
20260507183042 13 17 3.2 11.3 0.00 0.69 0.00 30 1021.8
20260507181537 13 134 4.8 14.5 0.00 0.69 0.00 28 1021.9
20260507180035 13 335 6.4 16.1 0.00 0.69 0.00 29 1022.2
20260507174537 13 327 6.4 14.5 0.00 0.71 0.00 31 1022.5
20260507173033 13 52 3.2 11.3 0.00 0.71 0.00 31 1022.8
20260507171525 12 76 4.8 17.7 0.00 0.71 0.00 32 1023.2
20260507170022 12 5 4.8 16.1 0.00 0.71 0.00 36 1023.5
20260507164520 12 65 6.4 14.5 0.00 0.71 0.00 32 1023.6
20260507163017 11 38 8.0 16.1 0.00 0.71 0.00 36 1023.8
20260507161512 11 5 6.4 12.9 0.00 0.71 0.00 38 1024.0
20260507160009 10 311 9.7 20.9 0.00 0.71 0.00 42 1024.2
20260507154506 10 42 4.8 11.3 0.00 0.71 0.00 46 1024.3
20260507153004 8 325 8.0 14.5 0.00 0.71 0.00 48 1024.5
20260507151558 8 342 6.4 12.9 0.00 0.71 0.00 50 1024.8
20260507150054 7 10 4.8 14.5 0.00 0.71 0.00 53 1025.0
20260507144551 7 343 6.4 16.1 0.00 0.71 0.00 53 1024.9
20260507143048 6 5 6.4 17.7 0.00 0.71 0.00 53 1025.1
20260507141549 6 22 4.8 14.5 0.00 0.71 0.00 54 1025.2
20260507134536 4 27 3.2 9.7 0.00 0.71 0.00 57 1025.4
20260507133032 3 355 4.8 9.7 0.00 0.71 0.00 58 1025.4
20260507131528 2 355 4.8 9.7 0.00 0.71 0.00 60 1025.3
20260507130024 1 355 6.4 12.9 0.00 0.71 0.00 61 1025.4
20260507124524 1 19 4.8 9.7 0.00 0.71 0.00 63 1025.2
20260507123016 0 355 4.8 9.7 0.00 0.71 0.00 66 1025.0
20260507121513 0 5 3.2 9.7 0.00 0.71 0.00 66 1024.9
20260507120011 -1 9 3.2 8.0 0.00 0.71 0.00 67 1024.9
20260507114510 -1 5 3.2 6.4 0.00 0.71 0.00 67 1025.0
20260507113009 -1 15 3.2 8.0 0.00 0.71 0.00 67 1025.0
20260507111510 -1 5 3.2 8.0 0.00 0.71 0.00 69 1025.0
20260507110005 -2 9 3.2 8.0 0.00 0.71 0.00 71 1025.0
20260507104503 -2 342 1.6 4.8 0.00 0.71 0.00 72 1024.9
20260507103100 -2 5 3.2 8.0 0.00 0.71 0.00 73 1025.1
20260507101558 -2 351 1.6 4.8 0.00 0.71 0.00 76 1025.3
20260507100059 -2 346 1.6 4.8 0.00 0.71 0.00 77 1025.4
20260507094556 -2 350 1.6 4.8 0.00 0.71 0.00 78 1025.3
20260507093055 -2 346 1.6 3.2 0.00 0.71 0.00 77 1025.4
20260507091553 -2 347 0.0 4.8 0.00 0.71 0.00 76 1025.7
20260507090051 -2 355 3.2 6.4 0.00 0.71 0.00 76 1025.9
20260507084554 -2 355 3.2 8.0 0.00 0.71 0.00 78 1025.9
20260507083053 -2 360 3.2 8.0 0.00 0.71 0.00 78 1026.0
20260507081545 -2 342 4.8 8.0 0.00 0.71 0.00 81 1026.0
20260507080100 -2 350 3.2 9.7 0.00 0.71 0.00 83 1026.0
20260507074545 -2 360 3.2 8.0 0.00 0.71 0.00 85 1026.1
20260507073039 -2 340 1.6 8.0 0.00 0.71 0.00 86 1026.2
20260507071553 -2 355 3.2 8.0 0.00 0.71 0.00 88 1026.2
20260507070037 -2 360 3.2 8.0 0.00 0.71 0.00 91 1026.2
20260507064533 -3 355 1.6 6.4 0.00 0.71 0.00 92 1026.3
20260507063035 -3 348 3.2 6.4 0.00 0.71 0.00 93 1026.3
20260507061530 -3 348 1.6 4.8 0.00 0.71 0.00 93 1026.3
20260507060032 -3 338 1.6 4.8 0.00 0.71 0.00 93 1026.2
20260507054526 -3 330 3.2 6.4 0.00 0.71 0.71 93 1026.1
20260507053026 -2 317 3.2 6.4 0.00 0.71 0.71 93 1026.1
20260507051525 -2 311 4.8 9.7 0.00 0.71 0.71 93 1026.1
20260507050024 -2 294 4.8 9.7 0.00 0.71 0.71 93 1026.1
20260507044524 -2 284 8.0 16.1 0.00 0.71 0.71 93 1026.0
20260507043033 -2 284 3.2 12.9 0.00 0.71 0.71 93 1026.0
20260507041524 -2 298 9.7 17.7 0.00 0.71 0.71 92 1026.1
20260507040021 -2 283 9.7 17.7 0.00 0.71 0.71 92 1026.0
20260507034521 -2 290 3.2 11.3 0.00 0.71 0.71 91 1026.0
20260507033020 -2 302 3.2 12.9 0.00 0.71 0.71 91 1026.0
20260507031518 -2 298 9.7 19.3 0.00 0.71 0.71 91 1025.7
20260507030018 -2 274 6.4 12.9 0.00 0.71 0.71 90 1025.5
20260507024517 -1 252 6.4 12.9 0.00 0.71 0.71 90 1025.4
20260507023017 -1 288 6.4 14.5 0.00 0.71 0.71 89 1025.4
20260507021517 -1 269 6.4 12.9 0.00 0.71 0.71 88 1025.4
20260507020017 -1 286 4.8 12.9 0.00 0.71 0.71 86 1025.2
20260507014517 0 275 4.8 12.9 0.00 0.71 0.71 85 1025.1
20260507013015 0 283 3.2 14.5 0.00 0.71 0.71 84 1025.0
20260507011530 0 275 8.0 14.5 0.00 0.71 0.71 81 1025.0
20260507010014 0 287 6.4 16.1 0.00 0.71 0.71 79 1024.8
20260507004518 1 263 9.7 12.9 0.00 0.71 0.71 78 1024.6
20260507003018 1 251 9.7 17.7 0.00 0.71 0.71 77 1024.6
20260507001512 1 286 6.4 12.9 0.00 0.71 0.71 79 1024.7
20260507000011 1 313 8.0 14.5 0.03 0.76 0.71 79 1025.0
20260506234512 1 326 8.0 11.3 0.03 0.76 0.71 78 1024.7
20260506233012 1 277 6.4 16.1 0.03 0.76 0.71 84 1024.8
20260506231508 1 294 4.8 11.3 0.05 0.76 0.71 84 1024.8
20260506230004 0 349 1.6 4.8 0.05 0.71 0.69 87 1024.8
20260506224503 0 46 1.6 8.0 0.05 0.71 0.69 89 1024.8
20260506223002 0 67 6.4 11.3 0.08 0.71 0.69 89 1024.9
20260506221501 0 86 4.8 14.5 0.08 0.71 0.66 89 1025.0
20260506220002 0 117 6.4 12.9 0.05 0.69 0.64 89 1025.1
20260506214601 0 80 8.0 16.1 0.10 0.69 0.64 90 1025.3
20260506213104 0 100 11.3 20.9 0.10 0.66 0.61 88 1025.2
20260506211559 0 50 4.8 12.9 0.10 0.64 0.58 89 1025.3
20260506210120 0 120 9.7 17.7 0.15 0.64 0.58 89 1025.1
20260506204557 0 75 8.0 16.1 0.13 0.61 0.53 90 1025.4